Location: Antichan
(42.9728°N, 0.6667°E)
Time: 18:10:07
(UTC+00:00)

Cosmos 1707 Rocket - Pass Details

Date: 15 August 2020
Orbit: 604 x 632 km, 82.5° (Epoch: 17 September)

Event Time Altitude Azimuth Distance (km) Brightness Sun altitude
Rises 19:48:09 0° 352° (N) 2,874 7.5 -9.0°
Reaches altitude 10° 19:50:23 10° 354° (N) 1,963 6.6 -9.4°
Maximum altitude 19:54:44 82° 82° (E) 616 3.5 -10.1°
Drops below altitude 10° 19:59:02 10° 170° (S) 1,946 5.7 -10.8°
Enters shadow 20:00:30 - 171° (S) 2,546 6.3 -11.0°
